{"data":{"norad_id":69022,"intl_designator":"2026-100AU","name":"HYDRA-3","alt_names":[],"object_type":"PAYLOAD","status":"ACTIVE","operator":null,"country":"SPN","launch_date":"2026-05-03","launch_site_code":"AFWTR","launch_vehicle":null,"mission":null,"orbit_class":"UNKNOWN","rcs_meters":null,"size_class":null,"mass_kg":null,"dimensions":null,"purposes":[],"wikipedia_slug":null,"has_3d_model":false,"image_url":null,"decayed_at":null,"tle_current":{"epoch":"2026-05-24T23:56:55.948992Z","epoch_age_seconds":71905,"freshness":"FRESH","line1":"1 69022U 26100AU  26144.99786978  .00005069  00000+0  24091-3 0  9996","line2":"2 69022  97.4050  43.2080 0006918  77.7817 282.4193 15.19629244  3289","mean_motion":15.19629244,"eccentricity":0.0006918,"inclination_deg":97.405,"raan_deg":43.208,"arg_perigee_deg":77.7817,"mean_anomaly_deg":282.4193,"bstar":0.00024091,"rev_number":328,"period_min":94.759955804062,"perigee_km":502.19715034567,"apogee_km":511.72337091548,"semimajor_km":6885.0972606306,"source":"CELESTRAK","updated_at":"2026-05-25T13:38:09.042187Z"}}}